PROGRESS-MS 34

Last updated on Fri Sep 04 2026 00:02:05 GMT+0000 (Coordinated Universal Time)

1 68837U 26093A 26246.43400287 .00003837 00000+0 77837-4 0 9996 2 68837 51.6311 272.8190 0004986 103.0101 257.1445 15.48978938584864
UTC large
Height (km)
Speed (km/s)
/
Latitude / Longitude
Inclination (degrees)
Orbital Period (minutes)
Azimuth
Elevation
Range (km)
Doppler Factor

Next 0 passes for location: London (51.5072 / 0.1276)

No passes found over London.
PROGRESS-MS 34